星链-31121 (STARLINK-31121 )

导读

STARLINK-31121是美国SpaceX公司于2023年12月29日发射的星链(Starlink)星座卫星,属于Starlink v2.0 mini平台,运行在近地轨道(LEO),轨道近地点约388千米,远地点约434千米,轨道倾角约43度,轨道周期约92.8分钟,每日绕地球15.5圈。作为星链全球卫星互联网星座的组成部分,它为全球偏远、缺乏传统基础设施的区域提供高速低延迟宽带互联网接入服务,目前仍在轨正常工作。

Basic Information
目录编号:
58685
目录名称:
STARLINK-31121
国际标识:
2023-211U
轨道中心:
EARTH
卫星名称:
星链-31121
卫星全名:
星链-31121 (STARLINK-31121 )
卫星状态:
在轨 (已飞行902 天)
发射日期:
2023-12-29 UTC
国别 :
美国 (US)
星等 :
--
Orbit Information
数据来源 国际轨道数据
星历时间: 2026-06-17T05:53:12+0800
1天前
查看轨道信息
半长轴: 6861.358km
偏心率: 0.0000226
轨道倾角: 43.000°
近地点辐角 242.821°
升交点赤经 244.552°
平近点角 117.262°
近地点: 483.065km
远地点: 483.377km
周期: 94.270分钟
每日圈数: 15.275226
Detailed Information
固有亮度:
5
最大亮度:
0.3
卫星平台:
Starlink v2.0 mini
覆盖范围:
全球
运营商:
太空探索技术公司
运营商所在国:
美国
制造商(研发单位):
太空探索技术公司
制造商所在国:
美国
使用方式:
暂无
Satellite Introduction
星链(Starlink)计划是由太空探索技术公司(SpaceX)提出的一个巨型低轨卫星互联网星座项目,计划在2019年至2024年间在太空搭建由约1.2万颗卫星组成的“星链”网络,其中1584颗将部署在地球上空550千米处的近地轨道,并从2020年开始工作。该卫星仍在工作。
2D Orbit Map
3D Orbit Map
Orbit Altitude Analysis Chart
Orbit Inclination Analysis Chart
Orbit Comprehensive Analysis Chart
View Comprehensive Chart